sat.trackr.live / text

‹ back to catalog

STARLINK-11078 [DTC]

NORAD 58710 · 2024-002F

PAYLOAD ACTIVE UNKNOWN

§ Identity

Operator
Country
US
Launch date
2024-01-03
Launch site
AFWTR
Launch vehicle
Mass (kg)
RCS (m²)

Purposes: comms

External: N2YO · Heavens-Above · Gunter

§ Orbital elements

Epoch: 2026-05-24T19:11:24.143136Z

Period
91.74 min
Inclination
53.1593°
Eccentricity
0.0000486
Mean motion
15.69726582 rev/d
Perigee alt
359.4 km
Apogee alt
360.0 km
Semi-major
6,737.8 km
B*
3.5904e-6
RAAN
258.6533°
Arg perigee
84.7453°
Mean anomaly
275.3620°
Rev number
13,839

§ Raw data

STARLINK-11078 [DTC]1 58710U 24002F   26144.79958499 -.00000152  00000+0  35904-5 0  99902 58710  53.1593 258.6533 0000486  84.7453 275.3620 15.69726582138390

JSON: /api/v1/satellites/58710 · /tle

For live sub-satellite position, see the globe view (requires WebGL).

§ Visibility from observer

Set your observer location to see the next 7 days of passes ≥ 10°. The values pass through the URL so the page stays shareable.

No JS? Fill the form by hand. The geolocation button needs JavaScript.